Weather History for PAZK - May, 2013

Change the Weather History Date:

Friday, May 17, 2013

  Actual Average Record
Temperature  
Mean Temperature 32 °F -  
Max Temperature 39 °F 44 °F 62 °F (2014)
Min Temperature 26 °F 28 °F 26 °F (2003)
Degree Days  
Heating Degree Days 32    
Moisture  
Dew Point 27 °F    
Average Humidity 80    
Maximum Humidity 100    
Minimum Humidity 56    
Precipitation  
Precipitation 0.00 in - - ()
Sea Level Pressure  
Sea Level Pressure 29.29 in    
Wind  
Wind Speed 9 mph (East)    
Max Wind Speed 16 mph    
Max Gust Speed 22 mph    
Visibility 8 miles    
Events      
Averages and records for this station are not official NWS values.
T = Trace of Precipitation, MM = Missing Value Source: NWS Daily Summary

Daily Weather History Graph

Daily Weather History Graph

Search for Another Location

Airport or City:

Trip Planner

Search our weather history database for the weather conditions in past years. The results will help you decide how hot, cold, wet, or windy it might be!

Date:

Astronomy

May. 17, 2013 Rise Set
Actual Time 4:49 AM AKDT 10:43 PM AKDT
Civil Twilight 3:30 AM AKDT 12:03 AM AKDT
Nautical Twilight Sun does not set Sun does not set
Astronomical Twilight Sun does not set Sun does not set
Moon 12:34 PM AKDT (5/17) 2:42 AM AKDT (5/17)
Length of Visible Light 20h 33m
Length of Day
17h 53m
Waxing Crescent, 46% of the Moon is Illuminated
May 17
Waxing Crescent
May 17
First Quarter
May 24
Full
May 31
Last Quarter
Jun 8
New

Hourly Weather History & Observations

Time (AKDT) Temp. Windchill Dew Point Humidity Pressure Visibility Wind Dir Wind Speed Gust Speed Precip Events Conditions
12:16 AM 28.4 °F 19.7 °F 24.8 °F 86% 29.37 in 10.0 mi NE 9.2 mph - N/A   Clear
12:36 AM 28.4 °F 19.1 °F 24.8 °F 86% 29.36 in 10.0 mi NE 10.4 mph - N/A   Clear
12:56 AM 28.4 °F 21.2 °F 24.8 °F 86% 29.37 in 10.0 mi NNE 6.9 mph - N/A   Clear
1:16 AM 28.4 °F 19.7 °F 24.8 °F 86% 29.36 in 10.0 mi NE 9.2 mph - N/A   Clear
1:36 AM 28.4 °F 21.2 °F 24.8 °F 86% 29.35 in 10.0 mi NNE 6.9 mph - N/A   Clear
1:56 AM 28.4 °F 19.1 °F 24.8 °F 86% 29.35 in 10.0 mi NNE 10.4 mph - N/A   Clear
2:16 AM 28.4 °F 19.7 °F 24.8 °F 86% 29.34 in 10.0 mi NE 9.2 mph - N/A   Clear
2:36 AM 28.4 °F 19.1 °F 24.8 °F 86% 29.33 in 10.0 mi NE 10.4 mph - N/A   Clear
2:56 AM 30.2 °F 21.3 °F 23.0 °F 75% 29.32 in 10.0 mi NE 10.4 mph - N/A   Partly Cloudy
3:16 AM 28.4 °F 22.2 °F 23.0 °F 80% 29.32 in 10.0 mi NNE 5.8 mph - N/A   Mostly Cloudy
3:36 AM 30.2 °F 20.8 °F 23.0 °F 75% 29.31 in 10.0 mi NE 11.5 mph - N/A   Partly Cloudy
4:16 AM 28.4 °F 19.7 °F 24.8 °F 86% 29.30 in 10.0 mi NNE 9.2 mph - N/A   Clear
4:36 AM 28.4 °F 18.5 °F 24.8 °F 86% 29.30 in 10.0 mi NE 11.5 mph - N/A   Clear
4:56 AM 28.4 °F 18.5 °F 24.8 °F 86% 29.30 in 10.0 mi NE 11.5 mph - N/A   Clear
5:16 AM 28.4 °F 19.7 °F 24.8 °F 86% 29.30 in 10.0 mi NNE 9.2 mph - N/A   Clear
5:36 AM 28.4 °F 21.2 °F 24.8 °F 86% 29.30 in 10.0 mi NNE 6.9 mph - N/A   Partly Cloudy
5:56 AM 28.4 °F 20.4 °F 24.8 °F 86% 29.30 in 10.0 mi North 8.1 mph - N/A   Partly Cloudy
6:16 AM 28.4 °F 21.2 °F 24.8 °F 86% 29.30 in 10.0 mi NNE 6.9 mph - N/A   Mostly Cloudy
6:36 AM 28.4 °F 22.2 °F 26.6 °F 93% 29.30 in 10.0 mi NNE 5.8 mph - N/A   Mostly Cloudy
6:56 AM 28.4 °F 19.7 °F 26.6 °F 93% 29.29 in 10.0 mi North 9.2 mph - N/A   Mostly Cloudy
7:16 AM 28.4 °F 22.2 °F 26.6 °F 93% 29.29 in 10.0 mi NNE 5.8 mph - N/A   Mostly Cloudy
7:36 AM 28.4 °F 22.2 °F 24.8 °F 86% 29.29 in 10.0 mi NNE 5.8 mph - N/A   Overcast
7:56 AM 30.2 °F 23.4 °F 26.6 °F 86% 29.28 in 10.0 mi NNE 6.9 mph - N/A   Overcast
8:16 AM 30.2 °F 23.4 °F 26.6 °F 86% 29.28 in 8.0 mi NE 6.9 mph - N/A   Overcast
8:36 AM 30.2 °F 24.3 °F 28.4 °F 93% 29.28 in 1.0 mi NNE 5.8 mph - N/A   Overcast
8:56 AM 30.2 °F 24.3 °F 28.4 °F 93% 29.28 in 0.8 mi NE 5.8 mph - N/A   Overcast
9:16 AM 30.2 °F 22.6 °F 28.4 °F 93% 29.28 in 1.0 mi ENE 8.1 mph - N/A   Overcast
9:36 AM 30.2 °F 22.6 °F 30.2 °F 100% 29.28 in 1.0 mi East 8.1 mph - N/A   Overcast
9:56 AM 30.2 °F 22.6 °F 30.2 °F 100% 29.28 in 1.5 mi East 8.1 mph - N/A   Overcast
10:16 AM 30.2 °F 21.3 °F 30.2 °F 100% 29.28 in 2.0 mi East 10.4 mph - N/A   Overcast
10:36 AM 32.0 °F 24.8 °F 30.2 °F 93% 29.28 in 2.5 mi East 8.1 mph - N/A   Overcast
11:16 AM 33.8 °F 27.0 °F 30.2 °F 87% 29.27 in 4.0 mi East 8.1 mph - N/A   Overcast
11:36 AM 33.8 °F 27.0 °F 30.2 °F 87% 29.27 in 3.0 mi East 8.1 mph - N/A   Overcast
11:56 AM 33.8 °F 27.7 °F 30.2 °F 87% 29.27 in 2.5 mi East 6.9 mph - N/A   Overcast
12:16 PM 33.8 °F - 30.2 °F 87% 29.27 in 7.0 mi Calm Calm - N/A   Overcast
12:36 PM 35.6 °F 31.7 °F 28.4 °F 75% 29.27 in 10.0 mi SSE 4.6 mph - N/A   Overcast
12:56 PM 35.6 °F 30.7 °F 30.2 °F 81% 29.28 in 10.0 mi East 5.8 mph - N/A   Overcast
1:16 PM 35.6 °F 29.9 °F 30.2 °F 81% 29.28 in 10.0 mi East 6.9 mph - N/A   Overcast
1:36 PM 37.4 °F 34.9 °F 28.4 °F 70% 29.27 in 10.0 mi East 3.5 mph - N/A   Overcast
1:56 PM 39.2 °F 34.2 °F 28.4 °F 65% 29.28 in 10.0 mi SSE 6.9 mph - N/A   Mostly Cloudy
2:16 PM 37.4 °F 30.3 °F 26.6 °F 65% 29.27 in 10.0 mi SSE 10.4 mph 17.3 mph N/A   Scattered Clouds
2:36 PM 39.2 °F 32.0 °F 26.6 °F 61% 29.27 in 10.0 mi South 11.5 mph 19.6 mph N/A   Clear
2:56 PM 37.4 °F 32.1 °F 26.6 °F 65% 29.27 in 10.0 mi SSE 6.9 mph - N/A   Clear
3:16 PM 37.4 °F 29.8 °F 26.6 °F 65% 29.27 in 10.0 mi South 11.5 mph - N/A   Clear
3:36 PM 37.4 °F 28.5 °F 26.6 °F 65% 29.27 in 10.0 mi South 15.0 mph 20.7 mph N/A   Clear
3:56 PM 39.2 °F 32.0 °F 26.6 °F 61% 29.27 in 10.0 mi SSE 11.5 mph 17.3 mph N/A   Clear
4:16 PM 37.4 °F 29.3 °F 26.6 °F 65% 29.27 in 10.0 mi SSE 12.7 mph 20.7 mph N/A   Clear
4:36 PM 37.4 °F 28.9 °F 24.8 °F 60% 29.27 in 10.0 mi SSE 13.8 mph 18.4 mph N/A   Clear
4:56 PM 39.2 °F 31.6 °F 26.6 °F 61% 29.27 in 10.0 mi SSE 12.7 mph 18.4 mph N/A   Clear
5:16 PM 39.2 °F 30.8 °F 24.8 °F 56% 29.26 in 10.0 mi SSE 15.0 mph 21.9 mph N/A   Clear
5:36 PM 39.2 °F 30.8 °F 24.8 °F 56% 29.26 in 10.0 mi SSE 15.0 mph 19.6 mph N/A   Clear
5:56 PM 39.2 °F 30.5 °F 24.8 °F 56% 29.26 in 10.0 mi SSE 16.1 mph 21.9 mph N/A   Clear
6:16 PM 37.4 °F 28.5 °F 24.8 °F 60% 29.26 in 10.0 mi SE 15.0 mph 21.9 mph N/A   Clear
6:36 PM 37.4 °F 29.3 °F 24.8 °F 60% 29.26 in 10.0 mi SSE 12.7 mph 18.4 mph N/A   Clear
6:56 PM 37.4 °F 28.9 °F 24.8 °F 60% 29.26 in 10.0 mi SSE 13.8 mph 20.7 mph N/A   Clear
7:16 PM 37.4 °F 30.8 °F 24.8 °F 60% 29.27 in 10.0 mi SSE 9.2 mph - N/A   Clear
7:36 PM 37.4 °F 30.8 °F 24.8 °F 60% 29.27 in 10.0 mi South 9.2 mph - N/A   Clear
7:56 PM 37.4 °F 32.8 °F 28.4 °F 70% 29.27 in 10.0 mi South 5.8 mph - N/A   Clear
8:16 PM 35.6 °F 28.0 °F 28.4 °F 75% 29.27 in 10.0 mi West 10.4 mph - N/A   Clear
8:36 PM 35.6 °F 29.9 °F 28.4 °F 75% 29.28 in 10.0 mi SW 6.9 mph - N/A   Partly Cloudy
8:56 PM 33.8 °F 27.7 °F 28.4 °F 81% 29.28 in 10.0 mi SW 6.9 mph - N/A   Clear
9:16 PM 32.0 °F 24.8 °F 28.4 °F 87% 29.29 in 10.0 mi WSW 8.1 mph - N/A   Clear
9:36 PM 30.2 °F 21.9 °F 28.4 °F 93% 29.29 in 10.0 mi WSW 9.2 mph - N/A   Clear
9:56 PM 30.2 °F 21.9 °F 26.6 °F 86% 29.29 in 10.0 mi WSW 9.2 mph - N/A   Clear
10:16 PM 28.4 °F 21.2 °F 26.6 °F 93% 29.30 in 10.0 mi WSW 6.9 mph - N/A   Scattered Clouds
10:36 PM 28.4 °F 19.1 °F 26.6 °F 93% 29.30 in 10.0 mi West 10.4 mph - N/A   Overcast
10:56 PM 28.4 °F 19.1 °F 26.6 °F 93% 29.30 in 2.5 mi WSW 10.4 mph - N/A   Overcast
11:16 PM 28.4 °F 19.7 °F 26.6 °F 93% 29.31 in 0.2 mi WSW 9.2 mph - N/A   Overcast
11:36 PM 26.6 °F 18.2 °F 26.6 °F 100% 29.31 in 3.0 mi WSW 8.1 mph - N/A   Overcast
11:56 PM 26.6 °F 18.2 °F 26.6 °F 100% 29.31 in 3.0 mi WSW 8.1 mph - N/A   Overcast